Location: La Brionne
(46.1728°N, 1.7849°E)
Time: 13:24:05
(UTC+00:00)

Cosmos 2219 Rocket - Pass Details

Date: 22 October 2021
Orbit: 826 x 848 km, 71.0° (Epoch: 01 December)

Event Time Altitude Azimuth Distance (km) Brightness Sun altitude
Rises 05:32:51 0° 332° (NNW) 3,401 5.0 -8.8°
Reaches altitude 10° 05:35:18 10° 331° (NNW) 2,465 4.3 -8.4°
Maximum altitude 05:40:57 77° 247° (WSW) 869 2.2 -7.4°
Drops below altitude 10° 05:46:36 10° 162° (SSE) 2,461 5.0 -6.4°
Sets 05:49:02 0° 161° (SSE) 3,394 5.8 -6.0°
